Windsor Locks, CT

6:35 AM EST on February 24, 2017 (GMT -0500)
Bradley International

Weather History for KBDL - October, 2012

Change the Weather History Date:

Friday, October 5, 2012

  Actual Average Record
Temperature  
Mean Temperature 65 °F 56 °F  
Max Temperature 78 °F 67 °F 88 °F (1941)
Min Temperature 52 °F 45 °F 29 °F (1996)
Degree Days  
Heating Degree Days 0 10  
Month to date heating degree days 10 44  
Since 1 July heating degree days 103 166  
Cooling Degree Days 0 1  
Month to date cooling degree days 0 5  
Year to date cooling degree days 980 754  
Growing Degree Days 15 (Base 50)    
Moisture  
Dew Point 55 °F    
Average Humidity 65    
Maximum Humidity 90    
Minimum Humidity 39    
Precipitation  
Precipitation 0.00 in 0.15 in 2.12 in (1962)
Month to date precipitation 0.99 0.75  
Year to date precipitation 30.48 34.90  
Snow  
Snow 0.00 in 0.00 in 0.00 in (2009)
Month to date snowfall 0.0 0.0  
Since 1 July snowfall 0.0 0.0  
Since 1 September snowfall 0.0 0.0  
Snow Depth -    
Sea Level Pressure  
Sea Level Pressure 30.01 in    
Wind  
Wind Speed 4 mph (South)    
Max Wind Speed 10 mph    
Max Gust Speed 16 mph    
Visibility 5 miles    
Events Fog    
T = Trace of Precipitation, MM = Missing Value Source: NWS Daily Summary

Daily Weather History Graph

Daily Weather History Graph

Search for Another Location

Airport or City:

Trip Planner

Search our weather history database for the weather conditions in past years. The results will help you decide how hot, cold, wet, or windy it might be!

Date:

Astronomy

Oct. 05, 2012 Rise Set
Actual Time 6:52 AM EDT 6:24 PM EDT
Civil Twilight 6:24 AM EDT 6:52 PM EDT
Nautical Twilight 5:52 AM EDT 7:24 PM EDT
Astronomical Twilight 5:19 AM EDT 7:57 PM EDT
Moon 9:41 PM EDT (10/5) 12:02 PM EDT (10/5)
Length of Visible Light 12h 27m
Length of Day
11h 32m
Waning Gibbous, 74% of the Moon is Illuminated
Oct 5
Waning Gibbous
Oct 8
Last Quarter
Oct 15
New
Oct 21
First Quarter
Oct 29
Full

Hourly Weather History & Observations

Time (EDT) Temp. Dew Point Humidity Pressure Visibility Wind Dir Wind Speed Gust Speed Precip Events Conditions
12:25 AM 62.6 °F 60.8 °F 94% 30.04 in 1.8 mi SSE 3.5 mph - N/A   Scattered Clouds
12:32 AM 62.6 °F 60.8 °F 94% 30.03 in 6.0 mi SSE 3.5 mph - N/A   Partly Cloudy
12:51 AM 63.0 °F 61.0 °F 93% 30.03 in 6.0 mi Calm Calm - N/A   Partly Cloudy
1:51 AM 57.0 °F 55.9 °F 96% 30.04 in 0.8 mi Calm Calm - N/A   Scattered Clouds
2:47 AM 55.4 °F 55.4 °F 100% 30.03 in 3.0 mi Calm Calm - N/A   Scattered Clouds
2:51 AM 57.0 °F 55.9 °F 96% 30.03 in 3.0 mi Calm Calm - N/A   Partly Cloudy
3:51 AM 55.0 °F 55.0 °F 100% 30.02 in 8.0 mi Calm Calm - N/A   Partly Cloudy
4:51 AM 55.0 °F 54.0 °F 96% 30.02 in 9.0 mi Calm Calm - N/A   Partly Cloudy
5:51 AM 54.0 °F 53.1 °F 97% 30.03 in 9.0 mi Calm Calm - N/A   Partly Cloudy
6:51 AM 54.0 °F 52.0 °F 93% 30.04 in 3.0 mi Calm Calm - N/A   Partly Cloudy
7:06 AM 53.6 °F 51.8 °F 94% 30.05 in 2.0 mi Calm Calm - N/A   Partly Cloudy
7:13 AM 53.6 °F 51.8 °F 94% 30.05 in 0.8 mi Calm Calm - N/A   Partly Cloudy
7:25 AM 53.6 °F 53.6 °F 100% 30.05 in 1.5 mi South 3.5 mph - N/A   Partly Cloudy
7:34 AM 53.6 °F 53.6 °F 100% 30.04 in 0.5 mi SSE 4.6 mph - N/A Fog Fog
7:41 AM 53.6 °F 53.6 °F 100% 30.04 in 0.2 mi South 3.5 mph - N/A Fog Fog
7:51 AM 55.0 °F 54.0 °F 96% 30.04 in 0.5 mi South 3.5 mph - N/A Fog Fog
7:56 AM 55.4 °F 55.4 °F 100% 30.04 in 0.5 mi South 3.5 mph - N/A Fog Fog
8:07 AM 55.4 °F 55.4 °F 100% 30.04 in 0.2 mi South 5.8 mph - N/A Fog Fog
8:15 AM 55.4 °F 55.4 °F 100% 30.04 in 0.1 mi SSE 5.8 mph - N/A Fog Fog
8:51 AM 57.0 °F 55.9 °F 96% 30.05 in 0.1 mi Calm Calm - N/A Fog Fog
8:53 AM 57.2 °F 55.4 °F 94% 30.05 in 0.1 mi Calm Calm - N/A Fog Fog
9:27 AM 59.0 °F 57.2 °F 94% 30.05 in 1.2 mi South 3.5 mph - N/A   Mostly Cloudy
9:36 AM 59.0 °F 57.2 °F 94% 30.04 in 3.0 mi SSE 4.6 mph - N/A   Scattered Clouds
9:51 AM 60.1 °F 59.0 °F 96% 30.04 in 10.0 mi South 3.5 mph - N/A   Partly Cloudy
10:51 AM 66.9 °F 60.1 °F 79% 30.04 in 10.0 mi SE 3.5 mph - N/A   Clear
11:51 AM 73.0 °F 57.0 °F 57% 30.02 in 10.0 mi WSW 5.8 mph - N/A   Clear
12:51 PM 75.0 °F 54.0 °F 48% 29.99 in 10.0 mi West 9.2 mph - N/A   Partly Cloudy
1:51 PM 75.9 °F 53.1 °F 45% 29.97 in 10.0 mi Variable 3.5 mph - N/A   Partly Cloudy
2:51 PM 78.1 °F 51.1 °F 39% 29.95 in 10.0 mi SSW 6.9 mph - N/A   Clear
3:51 PM 77.0 °F 51.1 °F 40% 29.94 in 10.0 mi SSW 4.6 mph - N/A   Clear
4:51 PM 77.0 °F 51.1 °F 40% 29.93 in 10.0 mi South 6.9 mph - N/A   Clear
5:51 PM 73.9 °F 55.0 °F 52% 29.94 in 10.0 mi SSW 6.9 mph - N/A   Clear
6:51 PM 70.0 °F 55.9 °F 61% 29.94 in 10.0 mi South 5.8 mph - N/A   Clear
7:51 PM 68.0 °F 57.0 °F 68% 29.94 in 10.0 mi South 6.9 mph - N/A   Clear
8:51 PM 64.9 °F 57.9 °F 78% 29.94 in 10.0 mi South 5.8 mph - N/A   Clear
9:51 PM 63.0 °F 57.9 °F 84% 29.94 in 10.0 mi SW 3.5 mph - N/A   Clear
10:51 PM 63.0 °F 57.9 °F 84% 29.93 in 9.0 mi Calm Calm - N/A   Clear
11:51 PM 61.0 °F 57.9 °F 90% 29.91 in 7.0 mi South 5.8 mph - N/A   Partly Cloudy